Погода в Сильверстоуне

Великобритания     52°05′25″N   1°01′23″W
темп.,
°C
ветер,
м/с
пор.,
м/с
влажн.,
%
обл.,
%
осадки,
мм/ч
давл.,
гПа
погр.,
м
20 апреля, вт
вт2001:00+8вюв2482100 0.0 101988
04:00+7ююв2487100 0.0 101992
07:00+8ююв2285100 0.0 101948
10:00+10ююв1179100 0.0 1019276
13:00+13зсз216949 0.2 1018759
16:00+14с226533 0.7 10171012
19:00+12ссв348287 1.6 101783
22:00+8св339175 0.4 101852
21 апреля, ср
ср2101:00+7св229495 0.4 101928
04:00+6св479895 0.1 1019161
07:00+6св5119681 0.1 1020356
10:00+8св71090100 0.1 1022889
13:00+10св7866100 0.1 10231219
16:00+10св676398 0.0 10231283
19:00+7св69705 0.0 1024628
22:00+2св411815 0.0 1026298
22 апреля, чт
чт2201:000св37935 0.0 1027135
04:00−1св359358 0.0 102775
07:000св368812 0.0 1028151
10:00+7всв45616 0.0 1028680
13:00+11всв45545 0.0 10281109
16:00+12всв455645 0.0 10271314
19:00+10св477464 0.0 1028227
22:00+4в338913 0.0 103044
23 апреля, пт
пт2301:00+2вюв22915 0.0 103013
04:00+1всв22924 0.0 103012
07:00+1всв24895 0.0 103186
10:00+8в46605 0.0 1031545
13:00+12в45520 0.0 10301034
16:00+13в55540 0.0 10291225
19:00+10вюв4775100 0.0 1029237
22:00+4вюв3880100 0.0 1030130
24 апреля, сб
сб2401:00+2в3581100 0.0 103179
04:00+1всв3579100 0.0 103079
07:00+3всв3778100 0.0 1030165
10:00+9в5765100 0.0 1030546
13:00+12всв5759100 0.0 10301128
16:00+13всв6761100 0.0 10291306
19:00+11св59744 0.0 1030458
22:00+5св411900 0.0 1032217